Location: Unspecified
(48.2082°N, 0.0000°E)
Time: 10:50:22
(UTC+00:00)

Transit 4A - Pass Details

Date: 25 June 2019
Orbit: 866 x 978 km, 66.8° (Epoch: 16 October)

Event Time Altitude Azimuth Distance (km) Brightness Sun altitude
Rises 07:41:39 0° 210° (SSW) 3,606 10.7 33.5°
Reaches altitude 10° 07:44:09 10° 210° (SSW) 2,678 10.2 33.9°
Maximum altitude 07:50:26 85° 124° (SE) 980 8.8 35.0°
Drops below altitude 10° 07:56:53 10° 36° (NE) 2,736 10.8 36.1°
Sets 07:59:28 0° 36° (NE) 3,689 11.4 36.5°
